Hourly Data Report for August 26, 2017

KITCHENER/WATERLOO
ONTARIO

43°27'39.000" N
80°22'43.000" W
321.60 m
6144239
71368
YKF

Download Data

Hourly Data (August 2017)
Hourly Data Report for August 26, 2017
TIME
LST
Temp Definition
°C
Dew Point Definition
°C
Rel Hum Definition
%
Precip. Amount Definition
mm

Wind Dir Definition
10's deg

Wind Spd Definition
km/h
Visibility Definition
km
Stn Press Definition
kPa
Hmdx Definition


Wind Chill Definition


Weather Definition


00:00 8.7 8.1 96 0.0 33 4 16.1 98.75     LegendNANA
01:00 7.3 6.9 97 0.0 34 5 16.1 98.73     LegendNANA
02:00 7.3 7.0 98 0.0 35 5 16.1 98.71     LegendNANA
03:00 7.4 7.1 98 0.0 31 5 16.1 98.77     LegendNANA
04:00 7.0 6.4 96 0.0 32 8 16.1 98.77     LegendNANA
05:00 6.1 5.2 94 0.0 34 4 16.1 98.77     LegendNANA
06:00 6.0 5.4 96 0.0 31 4 16.1 98.83     LegendNANA
07:00 8.0 7.1 94 0.0   0 16.1 98.86     LegendNANA
08:00 11.6 9.5 87 0.0 35 5 16.1 98.90     LegendNANA
09:00 15.1 10.6 74 0.0 LegendMM 4 16.1 98.90     LegendNANA
10:00 17.4 8.9 57 0.0 34 9 16.1 98.91     LegendNANA
11:00 18.5 8.4 52 0.0 LegendMM 5 16.1 98.87     LegendNANA
12:00 19.2 9.0 51 0.0 LegendMM 4 16.1 98.84     LegendNANA
13:00 20.1 9.0 49 0.0 LegendMM 4 16.1 98.80     LegendNANA
14:00 21.0 8.1 43 0.0 7 9 16.1 98.76     LegendNANA
15:00 21.3 7.3 40 0.0 LegendMM 8 16.1 98.71     LegendNANA
16:00 20.8 8.4 44 0.0   0 16.1 98.67     LegendNANA
17:00 19.5 7.2 44 0.0 15 5 16.1 98.68     LegendNANA
18:00 19.5 9.1 51 0.0 18 8 16.1 98.68     LegendNANA
19:00 15.0 10.8 76 0.0 LegendMM 4 16.1 98.70     LegendNANA
20:00 13.2 9.5 78 0.0 12 9 16.1 98.75     LegendNANA
21:00 12.7 10.1 84 0.0 6 5 16.1 98.77     LegendNANA
22:00 10.3 9.0 92 0.0 7 5 16.1 98.76     LegendNANA
23:00 9.6 9.0 96 0.0   0 16.1 98.77     LegendNANA

Notes on Data Quality.

Legend

  • E = Estimated
  • M = Missing
  • NA = Not Available*
  • [empty] = Indicates an unobserved value
Date modified: